Location: York
(31.8935°S, 116.7682°E)
Time: 18:25:30
(UTC+08:00)

Tiros 1 - Visible Passes

Search period start: 13 June 2021 00:00
Search period end: 23 June 2021 00:00
Orbit: 630 x 664 km, 48.4° (Epoch: 13 June)

Date Brightness Start Highest point End Pass type
(mag) Time Alt. Az. Time Alt. Az. Time Alt. Az.
13 Jun 8.9 06:05:30 10° SSW 06:09:07 22° SSE 06:12:48 10° ESE visible
14 Jun 9.5 04:52:45 13° SSE 04:52:45 13° SSE 04:54:38 10° SE visible
14 Jun 8.0 06:30:57 10° SW 06:35:25 42° SE 06:39:51 10° ENE visible
15 Jun 8.9 05:17:42 19° S 05:18:49 21° SSE 05:22:24 10° ESE visible
16 Jun 8.1 05:42:42 22° SSW 05:45:09 39° SSE 05:49:32 10° ENE visible
17 Jun 9.5 04:30:05 17° SE 04:30:05 17° SE 04:32:00 10° ESE visible
17 Jun 7.1 06:07:45 18° SW 06:11:14 89° SE 06:15:52 10° NE visible
18 Jun 8.3 04:55:12 36° SE 04:55:12 36° SE 04:59:13 10° E visible
18 Jun 8.0 06:32:52 10° WSW 06:37:03 35° NW 06:41:16 10° NNE visible
19 Jun 7.0 05:20:22 66° SSW 05:20:59 82° SE 05:25:38 10° NE visible
20 Jun 9.9 04:07:55 15° E 04:07:55 15° E 04:08:53 10° E visible
20 Jun 7.8 05:45:37 33° W 05:46:50 39° NW 05:51:09 10° NNE visible
21 Jun 9.0 04:33:14 27° ENE 04:33:14 27° ENE 04:35:24 10° NE visible
21 Jun 9.0 06:10:54 13° WNW 06:12:28 15° NW 06:15:05 10° NNW visible
22 Jun 8.6 04:58:34 28° N 04:58:34 28° N 05:01:01 10° NNE visible
22 Jun 9.2 19:02:03 10° N 19:03:52 16° NNE 19:03:52 16° NNE visible
